Regional Weather Roundup
Issued by NWS

Home | Current Version | Previous Version | Graphics & Text | Print | Product List | Glossary On
Versions: 1 2 3 4 5 6 7 8 9 10 11 12 13 14 15 16 17 18 19 20 21 22 23 24 25 26 27
000
ASUS45 KSLC 301110
RWRUT

UTAH REGIONAL WEATHER ROUNDUP
NATIONAL WEATHER SERVICE SALT LAKE CITY UT
500 AM MDT THU OCT 30 2014

UTZ001>011-023>025-301200-

NORTHERN UTAH

CITY           SKY/WX    TMP DP  RH WIND       PRES   REMARKS
BRIGHAM CITY   CLEAR     36  28  74 CALM      30.28S
HILL AFB       CLEAR     45  27  49 E17       30.28R
LOGAN          CLEAR     33  28  81 CALM      30.30S
OGDEN          CLEAR     44  28  53 S9        30.27R
PROVO AIRPORT  PTCLDY    39  27  60 S3        30.29S
SALT LAKE CITY CLEAR     41  30  65 SE6       30.27R
VERNAL         PTCLDY    34  23  64 W5        30.35R WCI  30
WENDOVER       PTCLDY    37  25  60 CALM      30.26S
HEBER CITY     CLEAR     27  21  80 CALM      30.35S
WEST JORDAN    CLEAR     46  28  49 CALM      30.28S

$$

UTZ012>022-026-027-301200-

SOUTHERN/CENTRAL UTAH

CITY           SKY/WX    TMP DP  RH WIND       PRES   REMARKS
BLANDING       PTCLDY    38  16  39 CALM      30.37S
BRYCE CANYON   PTCLDY    28  17  63 W10       30.39F WCI  19
CEDAR CITY     PTCLDY    38  18  44 SW3       30.27F
DELTA          MOCLDY    37  24  61 E3        30.27F
HANKSVILLE       N/A     32  12  43 CALM      30.32S
MILFORD        PTCLDY    37  19  48 NW6       30.27S WCI  32
MOAB/CYNLANDS  CLEAR     35  13  40 CALM      30.29S
PRICE          CLEAR     37  17  44 CALM      30.32S
ST GEORGE      SUNNY     52  18  25 CALM      30.19S
KANAB            N/A     39  21  48 NE7       30.30S WCI  34

$$

REGIONAL REPORTS     COLORADO/ARIZONA

CITY           SKY/WX    TMP DP  RH WIND       PRES   REMARKS
CRAIG, CO      CLOUDY    27  23  85 CALM      30.38S
GRAND JUNCTION CLEAR     35  20  54 SE6       30.32S WCI  30
RIFLE          CLEAR     31  20  63 S3        30.38R
MONTROSE       PTCLDY    32  20  61 SE6       30.38R WCI  26
CORTEZ         CLEAR     31  18  58 E7        30.32S WCI  24
PAGE, AZ       PTCLDY    48  21  34 CALM      30.25S
GRAND CANYON   PTCLDY    27  16  63 CALM      30.34S
KINGMAN        CLEAR     45  30  55 CALM      30.13S
FLAGSTAFF      PTCLDY    28  21  75 CALM      30.34S

$$

REGIONAL REPORTS    NEVADA/IDAHO/WYOMING

CITY           SKY/WX    TMP DP  RH WIND       PRES   REMARKS
LAS VEGAS, NV  CLEAR     59  21  23 SW8       30.04F
ELY            MOCLDY    31  15  52 S10       30.31S WCI  22
ELKO           PTCLDY    33  21  61 NE5       30.24F WCI  29
POCATELLO, ID  CLOUDY    42  34  73 E9        30.28S
BURLEY         CLOUDY    38  33  82 CALM      30.24S
EVANSTON, WY   PTCLDY    40  23  50 S5        30.36S
ROCK SPRINGS   PTCLDY    34  28  79 W5        30.36S WCI  30

$$



USA.gov is the U.S. government's official web portal to all federal, state and local government web resources and services.